sat.trackr.live / text

‹ back to catalog

ONEWEB-0530

NORAD 55796 · 2023-029A

PAYLOAD ACTIVE UNKNOWN

§ Identity

Operator
Country
UK
Launch date
2023-03-09
Launch site
AFETR
Launch vehicle
Mass (kg)
RCS (m²)

Purposes: comms

External: N2YO · Heavens-Above · Gunter

§ Orbital elements

Epoch: 2026-09-19T22:29:53.020608Z

Period
109.03 min
Inclination
87.9130°
Eccentricity
0.0002235
Mean motion
13.20773051 rev/d
Perigee alt
1,180.1 km
Apogee alt
1,183.5 km
Semi-major
7,559.9 km
B*
1.1208e-4
RAAN
255.5572°
Arg perigee
97.3023°
Mean anomaly
262.8364°
Rev number
17,365

§ Raw data

ONEWEB-05301 55796U 23029A   26262.93741922  .00000059  00000+0  11208-3 0  99912 55796  87.9130 255.5572 0002235  97.3023 262.8364 13.20773051173651

JSON: /api/v1/satellites/55796 · /tle

For live sub-satellite position, see the globe view (requires WebGL).

§ Visibility from observer

Set your observer location to see the next 7 days of passes ≥ 10°. The values pass through the URL so the page stays shareable.

No JS? Fill the form by hand. The geolocation button needs JavaScript.